Weather History for KVIH - January, 2014

Change the Weather History Date:

Sunday, January 12, 2014

  Actual Average Record
Temperature  
Mean Temperature 45 °F 31 °F  
Max Temperature 62 °F 40 °F 68 °F (1995)
Min Temperature 27 °F 21 °F -5 °F (1997)
Degree Days  
Heating Degree Days 20 34  
Month to date heating degree days 488 408  
Since 1 July heating degree days 2575 2325  
Cooling Degree Days 0 0  
Month to date cooling degree days 0 0  
Year to date cooling degree days 0 0  
Moisture  
Dew Point 30 °F    
Average Humidity 66    
Maximum Humidity 100    
Minimum Humidity 32    
Precipitation  
Precipitation 0.00 in 0.07 in 1.28 in (2007)
Month to date precipitation 0.84 0.91  
Year to date precipitation 0.84 0.91  
Sea Level Pressure  
Sea Level Pressure 29.77 in    
Wind  
Wind Speed 17 mph (South)    
Max Wind Speed 32 mph    
Max Gust Speed 42 mph    
Visibility 10 miles    
Events Rain    
T = Trace of Precipitation, MM = Missing Value Source: NWS Daily Summary

Daily Weather History Graph

Daily Weather History Graph

Search for Another Location

Airport or City:

Trip Planner

Search our weather history database for the weather conditions in past years. The results will help you decide how hot, cold, wet, or windy it might be!

Date:

Astronomy

Jan. 12, 2014 Rise Set
Actual Time 7:23 AM CST 5:08 PM CST
Civil Twilight 6:54 AM CST 5:37 PM CST
Nautical Twilight 6:21 AM CST 6:09 PM CST
Astronomical Twilight 5:49 AM CST 6:41 PM CST
Moon 2:36 PM CST (1/12) 4:22 AM CST (1/12)
Length of Visible Light 10h 43m
Length of Day
9h 45m
Waxing Gibbous, 90% of the Moon is Illuminated
Jan 12
Waxing Gibbous
Jan 15
Full
Jan 23
Last Quarter
Jan 30
New
Feb 6
First Quarter

Hourly Weather History & Observations

Time (CST) Temp. Windchill Dew Point Humidity Pressure Visibility Wind Dir Wind Speed Gust Speed Precip Events Conditions
12:53 AM 28.9 °F 21.1 °F 27.0 °F 92% 29.95 in 10.0 mi SW 8.1 mph - N/A   Clear
1:53 AM 27.0 °F 19.5 °F 26.1 °F 96% 29.94 in 10.0 mi SSW 6.9 mph - N/A   Clear
2:53 AM 30.9 °F 22.2 °F 28.9 °F 92% 29.93 in 10.0 mi SSW 10.4 mph - N/A   Clear
3:53 AM 30.9 °F 22.2 °F 28.9 °F 92% 29.93 in 10.0 mi SSW 10.4 mph - N/A   Clear
4:53 AM 33.1 °F 24.4 °F 28.9 °F 85% 29.91 in 10.0 mi South 11.5 mph - N/A   Clear
5:53 AM 32.0 °F 23.0 °F 28.0 °F 85% 29.92 in 10.0 mi South 11.5 mph - N/A   Clear
6:53 AM 35.1 °F 25.9 °F 27.0 °F 72% 29.90 in 10.0 mi South 13.8 mph - N/A   Clear
7:53 AM 36.0 °F 26.7 °F 28.0 °F 73% 29.91 in 10.0 mi South 15.0 mph - N/A   Clear
8:53 AM 39.9 °F 32.1 °F 28.9 °F 65% 29.90 in 10.0 mi South 13.8 mph - N/A   Clear
9:53 AM 46.9 °F - 28.9 °F 50% 29.87 in 10.0 mi South 21.9 mph 29.9 mph N/A   Clear
10:53 AM 52.0 °F - 30.0 °F 43% 29.82 in 10.0 mi South 24.2 mph - N/A   Clear
11:53 AM 55.9 °F - 30.0 °F 37% 29.75 in 10.0 mi South 24.2 mph 35.7 mph N/A   Clear
12:53 PM 59.0 °F - 30.9 °F 35% 29.70 in 10.0 mi SSW 27.6 mph 38.0 mph N/A   Clear
1:53 PM 60.1 °F - 30.9 °F 33% 29.66 in 10.0 mi South 26.5 mph 39.1 mph N/A   Clear
2:53 PM 61.0 °F - 30.0 °F 31% 29.63 in 10.0 mi South 27.6 mph 39.1 mph N/A   Clear
3:53 PM 60.1 °F - 30.0 °F 32% 29.62 in 10.0 mi South 24.2 mph 32.2 mph 0.00 in Rain Light Rain
4:53 PM 57.0 °F - 30.9 °F 37% 29.62 in 10.0 mi South 18.4 mph 28.8 mph 0.00 in   Clear
5:53 PM 55.0 °F - 30.0 °F 38% 29.64 in 10.0 mi South 17.3 mph - N/A   Clear
6:53 PM 54.0 °F - 30.0 °F 40% 29.66 in 10.0 mi South 17.3 mph 28.8 mph 0.00 in   Clear
7:53 PM 53.1 °F - 30.0 °F 41% 29.68 in 10.0 mi South 15.0 mph 24.2 mph N/A   Clear
8:53 PM 51.1 °F - 33.1 °F 50% 29.68 in 10.0 mi South 18.4 mph 25.3 mph N/A   Clear
9:53 PM 48.9 °F - 34.0 °F 56% 29.66 in 10.0 mi South 15.0 mph - N/A   Clear
10:53 PM 50.0 °F - 34.0 °F 54% 29.63 in 10.0 mi South 18.4 mph - N/A   Clear
11:53 PM 50.0 °F - 33.1 °F 52% 29.62 in 10.0 mi South 18.4 mph 27.6 mph N/A   Clear